Tracking 28514 objects as of 24-Feb-2024
HD Live streaming from Space Station
objects crossing your sky now

STARLINK-4564

Track STARLINK-4564 now!
10-day predictions
STARLINK-4564 is classified as:


NORAD ID: 53560
Int'l Code: 2022-101AK
Perigee: 546.0 km
Apogee: 547.7 km
Inclination: 53.2 °
Period: 95.4 minutes
Semi major axis: 6917 km
RCS: Unknown
Launch date: August 19, 2022
Source: United States (US)
Launch site: AIR FORCE EASTERN TEST RANGE (AFETR)
Your satellite tracking list
Your tracking list is empty




NASA's NSSDC Master Catalog

Two Line Element Set (TLE):
1 53560U 22101AK  24054.56220441  .00000387  00000-0  42411-4 0  9998
2 53560  53.2163 159.3155 0001224  89.1952 270.9180 15.08843919 83953
Source of the keplerian elements: AFSPC